User: anonymous   Login
Location: Unspecified
(0.0000°N, 0.0000°E)
Time: 00:58:36
(UTC+00:00)
Language:

STARLINK-35552 - Orbit

View from above orbital plane
View from above orbital plane
View from above satellite
View from above satellite

Ground track
Ground track

The orbit is defined by the following mean orbital elements,

1 66058U          26145.53678039 +.00000000 +00000-0 +44670-3 0 00001
2 66058  53.1606 244.9798 0000551  16.5939 343.5082 15.34392991    06
Epoch (UTC): 25 May 2026 12:52:57
Eccentricity: 0.0000551
inclination: 53.1606°
perigee height: 462 km
apogee height: 463 km
right ascension of ascending node: 244.9798°
argument of perigee: 16.5939°
revolutions per day: 15.34392991
mean anomaly at epoch: 343.5082°

The dashed part of the orbit path shows where the satellite is in the earth's shadow,  

DLR